Simultaneous Nadir Overpasses (SNOs) Predictions

Prediction of SNOs between GOES-14 and NOAA-20 Satellite Orbit:

Table of predicted SNOs for the next 14.0 days since TLE Epoch: 4/10/2020
Index Date Time (GOES-14) GOES-14 Lat,Lon NOAA-20 Lat,Lon Distance(km) Time Diff (sec)
1 04/11/2020 08:36:54 0.13,-104.14 0.99,-108.07 448.00 80
2 04/12/2020 08:20:49 0.14,-104.14 0.02,-103.53 69.16 80
3 04/14/2020 20:24:00 -0.14,-104.13 -0.18,-104.31 20.63 80
4 04/15/2020 20:02:36 -0.15,-104.13 0.85, -99.79 495.41 80
5 04/17/2020 08:24:23 0.14,-104.15 0.34,-105.05 103.38 80
6 04/18/2020 08:08:19 0.14,-104.16 -0.69,-100.53 414.13 80
7 04/19/2020 20:30:15 -0.14,-104.16 -0.50,-105.83 190.11 80
8 04/20/2020 20:08:50 -0.14,-104.16 0.48,-101.30 326.27 80
9 04/22/2020 08:30:38 0.13,-104.17 0.66,-106.58 274.49 80
10 04/23/2020 08:14:32 0.14,-104.18 -0.31,-102.04 243.15 80




NCC Satellite Simultaneous Nadir Overpasses (SNOs) Prediction Service
